Regional Weather Roundup
Issued by NWS Newport/Morehead, NC

Current Version | Previous Version | Text Only | Print | Product List | Glossary On
Versions: 1 2 3 4 5 6 7 8 9 10 11 12 13 14 15 16 17 18 19 20 21 22 23 24 25 26 27 28 29 30 31 32 33 34 35 36 37 38 39 40 41 42 43 44 45 46 47 48 49 50
000 ASUS42 KMHX 161625 RWRMHX WEATHER ROUNDUP FOR EASTERN NORTH CAROLINA NATIONAL WEATHER SERVICE NEWPORT/MOREHEAD CITY NC 1100 AM EST MON JAN 16 2017 NOTE: "FAIR" INDICATES FEW OR NO CLOUDS BELOW 12,000 FEET WITH NO SIGNIFICANT WEATHER AND/OR OBSTRUCTIONS TO VISIBILITY NCZ015>017-031-032-045>047-102-103-161700- NORTH COAST CITY SKY/WX TMP DP RH WIND PRES REMARKS EDENTON CLOUDY 45 40 82 CALM 30.47F ELIZABETH CITY CLOUDY 44 40 85 N8 30.47S KITTY HAWK NOT AVBL MANTEO CLOUDY 46 38 73 NE10 30.45F $$ NCZ045>047-081-094-103-104-161700- CENTRAL COAST CITY SKY/WX TMP DP RH WIND PRES REMARKS FRISCO CLOUDY 50 44 80 NE8 30.42F $$ NCZ095-097-098-100-101-161700- SOUTHERN COAST CITY SKY/WX TMP DP RH WIND PRES REMARKS BEAUFORT CLOUDY 51 42 71 NE13 30.43S CEDAR ISLAND NOT AVBL JACKSONVILLE CLOUDY 50 41 71 NE7 30.44R PINEY ISLAND CLOUDY N/A N/A N/A N7 30.43F WILMINGTON CLOUDY 52 41 66 N5 30.44R $$ NCZ011>013-027>030-043-044-078>080-089-090>093-098-161700- COASTAL PLAIN CITY SKY/WX TMP DP RH WIND PRES REMARKS AHOSKIE N/A 40 35 84 N5 30.49S CLINTON CLOUDY 47 39 73 E3 30.46S ELIZABETHTOWN CLOUDY 49 40 70 NE3 30.44S GOLDSBORO CLOUDY 48 36 61 E8 30.42F GREENVILLE CLOUDY 45 36 70 NE6 30.46F HAVELOCK CLOUDY 49 40 71 NE12 30.45S KENANSVILLE CLOUDY 48 37 66 E5 30.45S KINSTON CLOUDY 48 36 61 E6 30.46S NEW BERN CLOUDY 48 39 71 NE6 30.46S RICHLANDS CLOUDY 48 39 71 NE7 30.45R ROCKY MOUNT CLOUDY 45 33 63 NE5 30.47R WASHINGTON CLOUDY 44 36 74 NE5 30.46F WHITEVILLE CLOUDY 49 45 85 NE6 30.42S FOG $$ AMZ130-135-150-152-154-156-158-170-250-252-270-ANZ085-086-088-633-658-670-161700- MARINE OBSERVATIONS STATION/POSITION TIME TEMP WIND PRES WAVE SWELL AIR SEA DIR/SP/G HT/PER HT/PER (UTC) (F) (DEG/KT/KT) (MB) (FT/S) (FT/S) CHESAPEAKE LIGHT NOT AVBL 64 E VA BEACH 1550 51 58 30/ 12/ 14 1030.8 3/ 8 3/ 8 DUCK 1600 45 44 20/ 11/ 13 1030.6 2 E DUCK 1600 45 N/A 3/ 8 OREGON INLET 1600 47 49 10/ 9/ 11 1030.8 13E OREGON INLT NOT AVBL HATTERAS CG 1600 47 53 20/ 8/ 11 1029.7 DIAMOND BUOY 1550 57 74 20/ 16/ 19 1029.5 5/ 5 2/ 8 CAPE LOOKOUT 1600 50 20/ 11/ 14 1029.9 BEAUFORT LAB 1600 49 48 30/ 10/ 13 1029.5 30 SE NEW RVR IN 1608 55 64 50/ 14/ 19 1029.6 30 SE NEW RVR IN 1613 64 N/A 4/ 5 2/11 27 SE WRIGHTSVLE 1608 58 70 60/ 16/ 21 1028.7 5 SE WRIGHTSVLE NOT AVBL 225 S CAPE HAT 1550 69 71 100/ 6/ 8 1027.8 4/ 9 3/ 9 41 SE CHARLESTON 1550 69 71 20/ 12/ 14 1027.1 4/ 8 3/ 8 $$

USA.gov is the U.S. government's official web portal to all federal, state and local government web resources and services.